This is the latest recevied weather packets stored in our database for station/object KF7SOJ. If no packets are shown the sender has not sent any weather packets the latest 10 day(s).
| Time | Temp. | Humidity | Pressure | Rain* | Wind** | Luminosity | Snow |
|---|---|---|---|---|---|---|---|
| 1787882029 | 25° C | 40% | 931.4 hPa | 0 mm | - | 6 W/m² | - |
| 1787881724 | 25.56° C | 37% | 931.5 hPa | 0 mm | - | 10 W/m² | - |
| 1787881420 | 26.11° C | 36% | 931.5 hPa | 0 mm | - | 14 W/m² | - |
| 1787881115 | 26.11° C | 36% | 931.5 hPa | 0 mm | - | 19 W/m² | - |
| 1787880811 | 26.11° C | 36% | 931.4 hPa | 0 mm | - | 24 W/m² | - |
| 1787880510 | 26.67° C | 36% | 931.6 hPa | 0 mm | - | 28 W/m² | - |
| 1787880208 | 26.67° C | 35% | 931.7 hPa | 0 mm | - | 34 W/m² | - |
| 1787879904 | 26.67° C | 35% | 931.7 hPa | 0 mm | - | 40 W/m² | - |
| 1787879599 | 26.67° C | 35% | 931.7 hPa | 0 mm | - | 50 W/m² | - |
| 1787879295 | 26.67° C | 36% | 931.8 hPa | 0 mm | - | 61 W/m² | - |
| 1787878991 | 26.67° C | 36% | 931.8 hPa | 0 mm | - | 71 W/m² | - |
| 1787878690 | 26.67° C | 38% | 931.8 hPa | 0 mm | - | 69 W/m² | - |
| 1787878385 | 26.67° C | 38% | 931.5 hPa | 0 mm | - | 78 W/m² | - |
| 1787878081 | 26.67° C | 37% | 931.1 hPa | 0 mm | - | 118 W/m² | - |
| 1787877776 | 27.22° C | 35% | 931.7 hPa | 0 mm | - | 85 W/m² | - |
| 1787877472 | 27.22° C | 35% | 931.8 hPa | 0 mm | - | 94 W/m² | - |
| 1787877168 | 27.22° C | 35% | 931.6 hPa | 0 mm | - | 99 W/m² | - |
| 1787876867 | 27.22° C | 34% | 931.8 hPa | 0 mm | - | 103 W/m² | - |
| 1787876563 | 27.22° C | 34% | 931.9 hPa | 0 mm | - | 123 W/m² | - |
| 1787876262 | 26.67° C | 36% | 931.6 hPa | 0 mm | - | 132 W/m² | - |
| 1787875961 | 26.67° C | 36% | 931.8 hPa | 0 mm | - | 137 W/m² | - |
| 1787875656 | 26.67° C | 36% | 931.4 hPa | 0 mm | - | 147 W/m² | - |
| 1787875355 | 26.67° C | 38% | 931.6 hPa | 0 mm | - | 151 W/m² | - |
| 1787875053 | 26.67° C | 37% | 931.5 hPa | 0 mm | - | 166 W/m² | - |
| 1787874749 | 26.11° C | 37% | 931.5 hPa | 0 mm | - | 140 W/m² | - |
* Rain latest hour (hover to see other rain measurements)
** Current wind speed in m/s (hover to see current wind gust speed)